Location: Newark
(48.2308°N, 120.8549°W)
Time: 22:58:48
(UTC+00:00)

Transit 2A Rocket - Pass Details

Date: 01 June 2020
Orbit: 584 x 919 km, 66.7° (Epoch: 10 July)

Event Time Altitude Azimuth Distance (km) Brightness Sun altitude
Rises 09:56:37 0° 300° (WNW) 3,313 8.3 -15.0°
Reaches altitude 10° 10:00:39 10° 329° (NNW) 2,462 8.0 -14.7°
Maximum altitude 10:03:02 13° 354° (N) 2,323 8.3 -14.5°
Drops below altitude 10° 10:05:30 10° 19° (NNE) 2,540 9.1 -14.3°
Sets 10:09:49 0° 47° (NE) 3,531 10.0 -14.0°
